Location: Ayer Observatory
(42.2600°N, 71.0700°W)
Time: 12:04:13
(UTC-04:00)

FO-29 - Pass Details

Date: 23 August 2019
Orbit: 801 x 1321 km, 98.6° (Epoch: 17 October)

Event Time Altitude Azimuth Distance (km) Brightness Sun altitude
Exits shadow 03:04:17 40° 131° (SE) 1,212 9.9 -27.7°
Maximum altitude 03:05:59 60° 73° (ENE) 946 9.6 -27.5°
Drops below altitude 10° 03:11:06 10° 354° (N) 2,390 12.1 -26.9°
Sets 03:13:26 0° 351° (N) 3,321 12.8 -26.6°
